Regional Weather Roundup
Issued by NWS

Home | Current Version | Previous Version | Graphics & Text | Print | Product List | Glossary On
Versions: 1 2 3 4 5 6 7 8 9 10 11 12 13 14 15 16 17 18 19 20 21 22 23 24 25 26 27 28 29 30 31 32 33 34 35 36 37 38 39 40 41 42 43 44 45 46 47 48 49 50
045
ASUS45 KBOU 171107
RWRCO

WEATHER ROUNDUP FOR COLORADO
NATIONAL WEATHER SERVICE DENVER/BOULDER CO
500 AM MDT THU AUG 17 2017

NOTE: "FAIR" INDICATES FEW OR NO CLOUDS BELOW 12000 FEET WITH NO
SIGNIFICANT WEATHER AND/OR OBSTRUCTIONS TO VISIBILITY.

COZ001>005-013-030-031-171200-
...NORTHWEST COLORADO...

CITY           SKY/WX    TMP DP  RH WIND       PRES   REMARKS
CRAIG          FAIR      49  43  80 CALM      30.23S
HAYDEN         FAIR      52  39  62 E9        30.27S
MEEKER         FAIR      50  39  66 N3        30.25S
RABBIT EARS PA CLOUDY    46  28  49 SW5       30.48S
STEAMBOAT SPGS MOCLDY    44  40  84 SW5       30.28R
WALDEN         FAIR      37  34  87 SE7       30.36S
$$

COZ006>008-011-171200-
...WEST CENTRAL VALLEYS...

CITY           SKY/WX    TMP DP  RH WIND       PRES   REMARKS
GRAND JUNCTION FAIR      63  39  41 SE10      30.13R
MONTROSE       FAIR      55  38  52 SE10      30.22S
EAGLE          FAIR      50  36  58 SE3       30.31R
RIFLE          FAIR      54  41  61 CALM      30.21R
DELTA          FAIR      59  37  45 E7        30.19R
NUCLA          FAIR      52  30  43 SE8       30.25S
$$

COZ017>023-064>068-171200-
...SOUTHWEST COLORADO...

CITY           SKY/WX    TMP DP  RH WIND       PRES   REMARKS
DURANGO        MOCLDY    46  30  53 CALM      30.27R
CORTEZ         FAIR      45  35  68 E3        30.22R
PAGOSA SPRINGS FAIR      45  31  58 CALM      30.34R
TELLURIDE      FAIR      47  30  50 SE5       30.45R
WOLF CREEK PAS FAIR      45  23  42 SW5       30.65R
$$

COZ009-010-012-014-032>034-037-058>063-171200-
...CENTRAL COLORADO...

CITY           SKY/WX    TMP DP  RH WIND       PRES   REMARKS
ASPEN          FAIR      44  35  70 SW7       30.33S
BUENA VISTA    FAIR      45  36  70 NW8       30.38S
COPPER MTN     MOCLDY    46  27  46 W12       30.59S
BERTHOUD PASS  FAIR      37  32  81 W22       30.59S
COTTONWOOD PAS FAIR      50  32  50 W5        30.47F
GUNNISON       FAIR      40  34  79 CALM      30.38R
KREMMLING      FAIR      45  39  81 CALM      30.36S
LEADVILLE      FAIR      31  29  92 CALM      30.46S
MONARCH PASS   FAIR      43  27  52 W12       30.69S
SALIDA         FAIR      52  43  71 W5        30.43S
SUNLIGHT       MOCLDY    46  27  46 NW6       30.54S
WILKERSON PASS FAIR      41  39  93 SW7       30.57S
$$

COZ069>075-171200-
...SAN LUIS VALLEY/SANGRE DE CRISTO MOUNTAINS...

CITY           SKY/WX    TMP DP  RH WIND       PRES   REMARKS
ALAMOSA        FAIR      43  36  76 E3        30.31R
DEL NORTE      FAIR      48  34  57 W10       30.36R
LA VETA PASS   NOT AVBL
SAGUACHE       MOCLDY    46  32  57 NW8       30.35R
$$

COZ035-036-038>040-171200-
...NORTHERN COLORADO FRONT RANGE...

CITY           SKY/WX    TMP DP  RH WIND       PRES   REMARKS
DENVER INTL AP MOCLDY    60  47  61 SW15      30.14F
DMNS CITY PARK   N/A     60  47  61 SW7       30.15S
AURORA         PTCLDY    60  47  62 S15       30.16F
FRONT RANGE AP FAIR      61  50  67 S15G21    30.16S
ERIE MUNI ARPT FAIR      51  47  86 CALM      30.19S
BOULDER MUN AP FAIR      59  41  51 CALM      30.14S
CENTENNIAL     FAIR      58  47  66 S8        30.19S
BROOMFIELD     NOT AVBL
FORT COLLINS   FAIR      51  48  89 CALM      30.14S
LONGMONT       FAIR      54  48  79 CALM      30.15S
$$

COZ041-046-047-076>085-087-088-171200-
...PIKES PEAK/PALMER DIVIDE AND SOUTHERN FOOTHILLS...

CITY           SKY/WX    TMP DP  RH WIND       PRES   REMARKS
COLO. SPRINGS  FAIR      60  48  64 S9        30.25F
A. F. ACADEMY  FAIR      50  48  95 N6        30.26S
SCHRIEVER AFB  MOCLDY    57  47  68 S8        30.25F
CHEYENNE MTN   MOCLDY    61  45  55 S5        30.22F
ELLICOTT       FAIR     N/A N/A N/A SW8       30.24S
FALCON         FAIR      55  46  72 SW7       30.30S
FORT CARSON    FAIR      59  48  67 SW8       30.22F
LIMON          FAIR      56  50  80 S3        30.19R
MONUMENT HILL  FAIR      54  45  71 S10       30.28F
CANON CITY     CLEAR     59  52  77 MISG      30.21S
WALSENBURG     FAIR      52  48  87 SW9       30.24R
TRINIDAD       FAIR      54  49  83 NW6       30.22F
$$

COZ042>045-048>051-090-091-171200-
...NORTHEAST COLORADO...

CITY           SKY/WX    TMP DP  RH WIND       PRES   REMARKS
GREELEY ARPT   FAIR      52  50  93 CALM      30.13S
AKRON          FAIR      55  49  80 S8        30.13S
BURLINGTON     FAIR      54  52  93 SW6       30.15R
WRAY           NOT AVBL
YUMA           FAIR      52  50  93 SW7       30.11S
STERLING       FAIR      50  50 100 CALM      30.09S
HOLYOKE        FAIR      55  54  94 SW6       30.09S
FORT MORGAN    FAIR      53  46  77 SW5       30.12S
$$

COZ086-089-092>099-171200-
...SOUTHEAST COLORADO...

CITY           SKY/WX    TMP DP  RH WIND       PRES   REMARKS
PUEBLO         FAIR      61  54  77 CALM      30.16F
LA JUNTA       FAIR      63  57  81 E3        30.15S
LAMAR          MOCLDY    62  57  83 SW3       30.12S
SPRINGFIELD      N/A     57  57 100 CALM      30.17S
$$




USA.gov is the U.S. government's official web portal to all federal, state and local government web resources and services.